[[{"header":{"parameterUnit":"m.s-1","parameterCategory":1,"la1":30.2991,"la2":30.254,"lo1":-89.0895,"lo2":-89.0444,"dy":0.0017,"dx":0.0017,"nx":28,"ny":28,"refTime":"2024-10-09T09:00:00:Z","depth":0,"parameterNumber":2,"parameterNumberName":"U-component_of_WINDS"},"data":[0,0,0,0,0,0,0,0,0,0,0,0,0,0,0,0,0,0,0,0,0,0,0,0,0,0,0,0,0,0,0,0,0,0,0,0,0,0,0,0,0,0,0,0,0,0,0,0,0,0,0,0,0,0,0,0,0,0,-0.667,-0.6671,0,-0.6722,-0.6723,-0.6723,-0.6728,-0.6727,-0.6726,-0.6726,-0.678,-0.6782,-0.6784,0,0,0,0,0,0,0,0,0,0,0,0,0,-0.6575,-0.6577,-0.667,-0.6671,-0.6671,-0.6722,-0.6723,-0.6723,-0.6728,-0.6727,-0.6726,-0.6726,-0.678,-0.6782,-0.6784,0,0,0,0,0,0,0,0,0,0,0,0,0,-0.662,-0.6577,-0.667,-0.6679,-0.6681,-0.6722,-0.6723,-0.6724,-0.6728,-0.6727,-0.6726,-0.6725,-0.6779,-0.6782,-0.6785,-0.682,0,0,-0.6794,-0.6795,0,0,0,0,0,0,0,0,-0.6618,-0.6624,-0.6677,-0.6679,-0.668,-0.6717,-0.6709,-0.6756,-0.6728,-0.671,-0.6726,-0.6725,-0.676,-0.6765,-0.6776,-0.6823,-0.6825,-0.6794,-0.6796,-0.6797,-0.6798,0,0,0,0,0,0,0,-0.6615,-0.6622,-0.6691,-0.6678,-0.668,-0.6681,-0.6687,-0.6718,-0.6739,-0.6711,-0.6712,-0.6718,-0.6761,-0.6773,-0.6778,-0.6826,-0.6794,-0.6797,-0.6798,-0.68,-0.6904,-0.6905,0,0,0,0,0,0,-0.661,-0.6619,-0.6689,-0.6692,-0.6646,-0.6684,-0.669,-0.6706,-0.6739,-0.6743,-0.6719,-0.6718,-0.6769,-0.6774,-0.6779,-0.6823,-0.6797,-0.68,-0.6802,-0.6903,-0.6904,-0.6905,0,0,0,0,0,0,-0.6608,-0.6616,-0.6687,-0.6656,-0.6665,-0.6686,-0.6705,-0.6708,-0.672,-0.6744,-0.6748,-0.6728,-0.6768,-0.6775,-0.681,-0.6825,-0.6801,-0.6804,-0.6902,-0.6903,-0.6905,-0.6911,0,0,0,0,0,0,-0.6605,-0.6615,-0.6628,-0.6656,-0.6667,-0.6716,-0.6706,-0.671,-0.6725,-0.6725,-0.6754,-0.6758,-0.6768,-0.6805,-0.6813,-0.6829,-0.6806,-0.6901,-0.6903,-0.6904,-0.6909,-0.6912,-0.6915,0,0,0,0,0,-0.6601,-0.6628,-0.6629,-0.6638,-0.6684,-0.6717,-0.6723,-0.6734,-0.6727,-0.674,-0.6756,-0.6757,-0.6822,-0.6809,-0.6817,-0.6834,-0.69,-0.6902,-0.6904,-0.6908,-0.6912,-0.6915,0,0,0,0,0,0,-0.6602,-0.6632,-0.6633,-0.667,-0.6691,-0.6718,-0.6735,-0.6738,-0.6762,-0.676,-0.6774,-0.678,-0.6814,-0.6828,-0.6812,-0.687,-0.686,-0.6864,-0.686,-0.6864,-0.6867,-0.6863,-0.6809,0,0,0,0,0,-0.6606,-0.6631,-0.6656,-0.6685,-0.6696,-0.6714,-0.6729,-0.6736,-0.6758,-0.6767,-0.6785,-0.6807,-0.6832,-0.6849,-0.6874,-0.6911,-0.6918,-0.6927,-0.693,-0.6932,-0.6935,-0.6957,-0.6961,-0.6913,-0.6913,-0.6913,0,0,-0.6616,-0.6635,-0.665,-0.6686,-0.6703,-0.6728,-0.6721,-0.6748,-0.6767,-0.6771,-0.6805,-0.6819,-0.6844,-0.688,-0.6897,-0.6893,-0.695,-0.6935,-0.6936,-0.6939,-0.6959,-0.6964,-0.6968,-0.6914,-0.6914,-0.6914,0,0,-0.6646,-0.6663,-0.6689,-0.6707,-0.6732,-0.6744,-0.6751,-0.6777,-0.6786,-0.682,-0.6824,-0.6847,-0.6891,-0.6909,-0.6923,-0.696,-0.6962,-0.6968,-0.6982,-0.7003,-0.7007,-0.701,-0.7023,-0.7028,-0.6971,-0.6971,-0.6971,0,-0.6654,-0.6692,-0.6703,-0.673,-0.6746,-0.675,-0.6778,-0.6794,-0.6827,-0.6838,-0.6832,-0.6887,-0.6905,-0.6945,-0.6954,-0.6966,-0.6974,-0.6965,-0.7005,-0.7009,-0.7012,-0.7025,-0.703,-0.6972,-0.6972,-0.6972,-0.6972,0,-0.6701,-0.6727,-0.6745,-0.6777,-0.6795,-0.6822,-0.6837,-0.6854,-0.686,-0.6872,-0.6907,-0.6928,-0.6957,-0.6967,-0.6973,-0.7009,-0.7005,-0.7002,-0.6992,-0.7017,-0.7029,-0.7034,-0.6973,-0.6972,-0.6972,-0.6972,0,0,-0.6732,-0.6769,-0.6776,-0.679,-0.6819,-0.684,-0.6867,-0.6895,-0.691,-0.6932,-0.6956,-0.6993,-0.699,-0.7007,-0.7015,-0.7033,-0.7061,-0.7028,-0.7028,-0.7033,-0.7102,-0.7104,-0.7109,-0.7062,-0.7063,-0.7064,-0.71,0,-0.6765,-0.6814,-0.6825,-0.6866,-0.6891,-0.6896,-0.6919,-0.694,-0.6952,-0.6975,-0.6989,-0.7015,-0.701,-0.702,-0.7038,-0.7053,-0.7075,-0.7051,-0.7084,-0.7085,-0.7078,-0.7116,-0.7118,-0.7151,-0.7105,-0.7106,-0.7106,0,-0.681,-0.6833,-0.6877,-0.6903,-0.6914,-0.6935,-0.6962,-0.6984,-0.7007,-0.7015,-0.7034,-0.704,-0.7069,-0.7057,-0.7098,-0.7081,-0.7096,-0.7105,-0.7107,-0.711,-0.7097,-0.712,-0.7162,-0.7166,-0.7114,-0.7113,-0.7113,0,-0.6829,-0.6871,-0.6903,-0.6915,-0.6946,-0.6961,-0.6975,-0.6997,-0.7014,-0.7037,-0.7048,-0.7075,-0.709,-0.7111,-0.7124,-0.7114,-0.7163,-0.7153,-0.7171,-0.7171,-0.7181,-0.718,-0.7225,-0.719,-0.719,-0.719,-0.719,0,-0.6864,-0.6891,-0.6912,-0.6931,-0.6962,-0.6974,-0.7004,-0.7018,-0.7038,-0.706,-0.7067,-0.7088,-0.7104,-0.7127,-0.7138,-0.717,-0.7177,-0.7184,-0.7187,-0.7183,-0.7182,-0.7193,-0.7191,-0.7191,-0.7191,-0.7191,-0.7191,0,-0.689,-0.6905,-0.694,-0.6967,-0.6974,-0.6995,-0.7018,-0.7037,-0.705,-0.7078,-0.7086,-0.7106,-0.7134,-0.7149,-0.7185,-0.7192,-0.7227,-0.7229,-0.7219,-0.722,-0.7237,-0.7236,-0.7291,-0.7298,-0.7258,-0.7259,-0.7259,0,-0.6912,-0.6932,-0.6961,-0.6977,-0.699,-0.7015,-0.7032,-0.7045,-0.7063,-0.7091,-0.7107,-0.7136,-0.7159,-0.7204,-0.7222,-0.7249,-0.7251,-0.7268,-0.7255,-0.7251,-0.7251,-0.7249,-0.7252,-0.727,-0.7271,-0.7271,-0.7271,0,-0.6948,-0.6955,-0.6979,-0.7005,-0.7025,-0.7046,-0.7068,-0.708,-0.7097,-0.7116,-0.7145,-0.7163,-0.7199,-0.7227,-0.7256,-0.727,-0.7274,-0.7275,-0.7281,-0.7278,-0.7272,-0.7275,-0.7225,-0.7274,-0.7274,-0.7274,-0.7273,-0.7273,-0.6973,-0.6991,-0.7015,-0.7041,-0.7058,-0.7078,-0.7098,-0.7113,-0.7137,-0.7167,-0.7174,-0.7204,-0.7227,-0.7266,-0.7281,-0.7306,-0.7302,-0.731,-0.7312,-0.7314,-0.7315,-0.7268,-0.7311,-0.7311,-0.7311,-0.7311,-0.7311,0,-0.701,-0.7025,-0.7049,-0.7079,-0.71,-0.7101,-0.7125,-0.7142,-0.7168,-0.719,-0.7213,-0.7246,-0.7273,-0.7293,-0.7322,-0.7337,-0.7339,-0.7344,-0.7343,-0.7346,-0.7316,-0.7308,-0.7342,-0.7342,-0.7342,-0.7342,-0.7342,-0.7342,-0.7031,-0.7063,-0.7072,-0.7113,-0.7128,-0.7157,-0.7171,-0.7189,-0.7207,-0.7243,-0.7266,-0.7279,-0.73,-0.733,-0.7355,-0.736,-0.737,-0.7375,-0.738,-0.7352,-0.7348,-0.7345,-0.7338,-0.7377,-0.7377,-0.7408,-0.7409,-0.7409]},{"header":{"parameterUnit":"m.s-1","parameterCategory":1,"la1":30.2991,"la2":30.254,"lo1":-89.0895,"lo2":-89.0444,"dy":0.0017,"dx":0.0017,"nx":28,"ny":28,"refTime":"2024-10-09T09:00:00:Z","depth":0,"parameterNumber":3,"parameterNumberName":"V-component_of_WINDS"},"data":[0,0,0,0,0,0,0,0,0,0,0,0,0,0,0,0,0,0,0,0,0,0,0,0,0,0,0,0,0,0,0,0,0,0,0,0,0,0,0,0,0,0,0,0,0,0,0,0,0,0,0,0,0,0,0,0,0,0,-3.0106,-3.0105,0,-3.0075,-3.0074,-3.0074,-3.0047,-3.0047,-3.0047,-3.0046,-3.0014,-3.0013,-3.0012,0,0,0,0,0,0,0,0,0,0,0,0,0,-3.0141,-3.0141,-3.0106,-3.0105,-3.0105,-3.0075,-3.0074,-3.0074,-3.0047,-3.0047,-3.0047,-3.0046,-3.0014,-3.0013,-3.0012,0,0,0,0,0,0,0,0,0,0,0,0,0,-3.012,-3.0141,-3.0106,-3.0088,-3.0086,-3.0075,-3.0074,-3.0074,-3.0047,-3.0047,-3.0047,-3.0046,-3.0014,-3.0013,-3.0012,-3.0016,0,0,-3.001,-3.0009,0,0,0,0,0,0,0,0,-3.0121,-3.0118,-3.0091,-3.0089,-3.0087,-3.0064,-3.0075,-3.0054,-3.0048,-3.0062,-3.0046,-3.0046,-3.0031,-3.0028,-3.0024,-3.0014,-3.0013,-3.0009,-3.0009,-3.0009,-3.0008,0,0,0,0,0,0,0,-3.0122,-3.012,-3.0093,-3.0091,-3.0088,-3.0082,-3.0078,-3.0071,-3.0049,-3.0061,-3.0059,-3.0056,-3.003,-3.0025,-3.0023,-3.0012,-3.0009,-3.0009,-3.0008,-3.0008,-3.0005,-3.0005,0,0,0,0,0,0,-3.0127,-3.0121,-3.0094,-3.0092,-3.0103,-3.0081,-3.0077,-3.0072,-3.0049,-3.0045,-3.0056,-3.0054,-3.0026,-3.0024,-3.0021,-3.0024,-3.0009,-3.0008,-3.0007,-3.0004,-3.0005,-3.0005,0,0,0,0,0,0,-3.0128,-3.0125,-3.0095,-3.0106,-3.0102,-3.0081,-3.0076,-3.0072,-3.0067,-3.0046,-3.0042,-3.0055,-3.0026,-3.0023,-3.0017,-3.0023,-3.0007,-3.0006,-3.0004,-3.0004,-3.0005,-3.003,0,0,0,0,0,0,-3.0129,-3.0125,-3.0126,-3.0106,-3.0101,-3.0092,-3.0076,-3.0071,-3.0065,-3.0063,-3.0043,-3.004,-3.0025,-3.0019,-3.0017,-3.0021,-3.0006,-3.0003,-3.0004,-3.0005,-3.0028,-3.0031,-3.0034,0,0,0,0,0,-3.013,-3.0134,-3.0126,-3.0123,-3.0102,-3.0093,-3.009,-3.0073,-3.0066,-3.0067,-3.0053,-3.004,-3.0023,-3.0019,-3.0016,-3.002,-3.0003,-3.0004,-3.0005,-3.0027,-3.0031,-3.0033,0,0,0,0,0,0,-3.0154,-3.0131,-3.0122,-3.0119,-3.0108,-3.0088,-3.0088,-3.0077,-3.0068,-3.0066,-3.0046,-3.0041,-3.0039,-3.0029,-3.0025,-3.0023,-3.0011,-3.0012,-3.0029,-3.0032,-3.0035,-3.0037,-3.0005,0,0,0,0,0,-3.0159,-3.0153,-3.0133,-3.0133,-3.0128,-3.0109,-3.0104,-3.0093,-3.008,-3.0075,-3.0061,-3.0049,-3.0041,-3.0036,-3.0027,-3.0027,-3.0023,-3.0029,-3.0031,-3.0034,-3.0034,-3.0034,-3.0037,-3.0009,-3.0009,-3.0009,0,0,-3.0169,-3.0156,-3.0153,-3.0137,-3.0127,-3.0122,-3.0105,-3.01,-3.0096,-3.0074,-3.0069,-3.0058,-3.0044,-3.0041,-3.004,-3.0033,-3.0041,-3.0035,-3.0037,-3.0036,-3.0035,-3.0038,-3.004,-3.0009,-3.0009,-3.0009,0,0,-3.0184,-3.0174,-3.0172,-3.0163,-3.0148,-3.0136,-3.0136,-3.0118,-3.0111,-3.0105,-3.0089,-3.0084,-3.007,-3.0061,-3.0054,-3.0068,-3.0056,-3.0065,-3.0079,-3.0079,-3.0081,-3.0083,-3.0088,-3.009,-3.0066,-3.0066,-3.0066,0,-3.0198,-3.0189,-3.0173,-3.0169,-3.0163,-3.0144,-3.0143,-3.0135,-3.0118,-3.0114,-3.0107,-3.009,-3.0079,-3.0074,-3.0078,-3.0073,-3.0073,-3.0067,-3.0082,-3.0084,-3.0085,-3.009,-3.0092,-3.0067,-3.0067,-3.0067,-3.0067,0,-3.0208,-3.0202,-3.0203,-3.0188,-3.0182,-3.0179,-3.0163,-3.0158,-3.0148,-3.0137,-3.0132,-3.0118,-3.0107,-3.0105,-3.0094,-3.0099,-3.0096,-3.0086,-3.0074,-3.009,-3.0094,-3.0096,-3.0069,-3.0069,-3.0068,-3.0068,0,0,-3.0235,-3.0213,-3.0213,-3.0207,-3.019,-3.0185,-3.0183,-3.0172,-3.0169,-3.0159,-3.0156,-3.0145,-3.0137,-3.0129,-3.0117,-3.0118,-3.013,-3.0108,-3.0107,-3.0113,-3.0135,-3.0143,-3.0145,-3.0122,-3.0123,-3.0123,-3.0137,0,-3.0248,-3.0242,-3.0228,-3.0226,-3.0221,-3.0204,-3.0201,-3.0191,-3.0181,-3.0175,-3.0164,-3.0157,-3.0146,-3.0141,-3.0141,-3.0129,-3.0134,-3.0128,-3.0119,-3.0119,-3.0123,-3.0147,-3.0155,-3.0168,-3.0138,-3.0139,-3.0139,0,-3.0261,-3.0253,-3.0251,-3.0236,-3.0233,-3.0231,-3.0221,-3.0216,-3.0204,-3.0197,-3.0189,-3.0177,-3.0173,-3.0163,-3.0157,-3.0153,-3.0149,-3.0143,-3.0143,-3.0141,-3.013,-3.0146,-3.0172,-3.0175,-3.0141,-3.0141,-3.0141,0,-3.0282,-3.027,-3.0268,-3.0263,-3.0245,-3.0244,-3.0236,-3.0224,-3.0219,-3.0211,-3.0207,-3.0198,-3.0193,-3.0186,-3.0172,-3.0166,-3.0169,-3.0157,-3.0163,-3.0163,-3.0163,-3.0164,-3.0189,-3.0161,-3.0161,-3.0161,-3.0161,0,-3.0297,-3.0297,-3.0277,-3.0275,-3.0275,-3.0259,-3.0258,-3.0249,-3.0239,-3.0235,-3.022,-3.0217,-3.0199,-3.0194,-3.0182,-3.018,-3.0178,-3.0172,-3.0169,-3.0173,-3.0174,-3.017,-3.0169,-3.0162,-3.0162,-3.0162,-3.0162,0,-3.032,-3.0307,-3.0303,-3.0287,-3.0283,-3.0283,-3.0269,-3.0267,-3.0257,-3.0253,-3.0251,-3.0235,-3.0228,-3.0214,-3.0203,-3.0196,-3.0196,-3.0191,-3.02,-3.0198,-3.0205,-3.0205,-3.0229,-3.0232,-3.0202,-3.0203,-3.0203,0,-3.033,-3.033,-3.0314,-3.0311,-3.0305,-3.03,-3.0295,-3.028,-3.0275,-3.0263,-3.0263,-3.0255,-3.0248,-3.0239,-3.0226,-3.0218,-3.0212,-3.0222,-3.0211,-3.0216,-3.0213,-3.0213,-3.0213,-3.0224,-3.0224,-3.0224,-3.0225,0,-3.035,-3.0344,-3.0338,-3.033,-3.0325,-3.0318,-3.031,-3.0309,-3.0292,-3.0288,-3.0281,-3.0276,-3.0266,-3.0259,-3.025,-3.0242,-3.0231,-3.0228,-3.0229,-3.0233,-3.0239,-3.0237,-3.0207,-3.0228,-3.0227,-3.0227,-3.0227,-3.0227,-3.0367,-3.0366,-3.0356,-3.035,-3.0342,-3.0336,-3.0334,-3.0324,-3.0318,-3.0309,-3.0301,-3.0295,-3.0285,-3.0271,-3.0264,-3.026,-3.0254,-3.0256,-3.0256,-3.0257,-3.0259,-3.024,-3.0258,-3.0258,-3.0258,-3.0258,-3.0258,0,-3.0386,-3.0379,-3.0374,-3.0364,-3.036,-3.0351,-3.0342,-3.0339,-3.0334,-3.0326,-3.032,-3.0313,-3.0307,-3.0294,-3.0287,-3.0286,-3.0281,-3.0284,-3.0284,-3.0283,-3.0264,-3.0264,-3.0289,-3.0289,-3.0289,-3.0289,-3.0289,-3.0289,-3.0396,-3.0394,-3.0387,-3.0382,-3.0375,-3.037,-3.0366,-3.036,-3.0353,-3.0346,-3.0341,-3.0333,-3.0323,-3.0315,-3.0309,-3.0306,-3.0304,-3.0309,-3.0304,-3.0287,-3.0284,-3.0281,-3.0281,-3.0309,-3.0309,-3.0323,-3.0323,-3.0324]}]]